Location: Santaluz Observatory
(32.9930°N, 117.1510°W)
Time: 23:42:37
(UTC-08:00)

Hubble Space Telescope - Visible Passes

Search period start: 11 February 2016 00:00
Search period end: 21 February 2016 00:00
Orbit: 540 x 543 km, 28.5° (Epoch: 10 February)

Date Brightness Start Highest point End Pass type
(mag) Time Alt. Az. Time Alt. Az. Time Alt. Az.
11 Feb 2.3 18:39:21 10° SW 18:42:43 23° SSE 18:44:10 19° SE visible
12 Feb 2.1 18:29:39 10° SW 18:33:12 28° SSE 18:35:23 18° ESE visible
12 Feb 3.7 20:10:11 10° WSW 20:10:48 14° WSW 20:10:48 14° WSW visible
13 Feb 2.0 18:20:00 10° SW 18:23:43 32° SSE 18:26:35 15° ESE visible
13 Feb 3.3 20:00:43 10° WSW 20:02:00 19° WSW 20:02:00 19° WSW visible
14 Feb 1.8 18:10:24 10° WSW 18:14:13 36° S 18:17:45 12° ESE visible
14 Feb 2.9 19:51:16 10° WSW 19:53:10 24° WSW 19:53:10 24° WSW visible
15 Feb 1.7 18:00:51 10° WSW 18:04:44 39° S 18:08:38 10° ESE visible
15 Feb 2.4 19:41:48 10° WSW 19:44:20 31° SW 19:44:20 31° SW visible
16 Feb 1.6 17:51:19 10° WSW 17:55:15 42° S 17:59:11 10° ESE visible
16 Feb 2.0 19:32:22 10° WSW 19:35:31 36° SW 19:35:31 36° SW visible
17 Feb 1.8 19:22:57 10° WSW 19:26:43 36° SSW 19:26:43 36° SSW visible
18 Feb 2.0 19:13:34 10° WSW 19:17:17 32° SSW 19:17:57 30° S visible
19 Feb 2.3 19:04:13 10° WSW 19:07:45 27° SSW 19:09:14 22° SSE visible
20 Feb 2.6 18:54:53 10° WSW 18:58:13 23° SSW 19:00:35 15° SSE visible
